FW9229 Weather Reports


Display with metric or nautical units.
time (UTC)temp
F
wind
direction
speed
MPH
gust
MPH
rain 1hr
in
rain 24hr
in
rain mn
in
humidity
%
barometer
mb
20260905085519 82 0 0.0 0.0 0.00 0.00 0.00 71 1013.2
20260905085021 82 0 0.0 0.0 0.00 0.00 0.00 70 1013.1
20260905084538 82 0 0.0 0.0 0.00 0.00 0.00 70 1012.9
20260905084020 82 0 0.0 0.0 0.00 0.00 0.00 70 1012.9
20260905083520 82 0 0.0 0.0 0.00 0.00 0.00 69 1012.9
20260905083038 82 0 0.0 0.0 0.00 0.00 0.00 70 1012.9
20260905082519 82 0 0.0 0.0 0.00 0.00 0.00 70 1012.8
20260905082019 83 0 0.0 0.0 0.00 0.00 0.00 69 1012.8
20260905081541 83 0 0.0 0.0 0.00 0.00 0.00 68 1012.9
20260905081019 83 0 0.0 0.0 0.00 0.00 0.00 68 1012.9
20260905080516 83 0 0.0 0.0 0.00 0.00 0.00 68 1012.8
20260905080039 83 0 0.0 3.0 0.00 0.00 0.00 68 1012.8
20260905075520 84 0 0.0 3.0 0.00 0.00 0.00 68 1012.9
20260905075018 84 0 0.0 1.0 0.00 0.00 0.00 68 1012.9
20260905074552 84 0 0.0 1.0 0.00 0.00 0.00 67 1013.0
20260905074022 84 0 0.0 2.0 0.00 0.00 0.00 67 1013.0
20260905073520 85 0 0.0 3.0 0.00 0.00 0.00 66 1013.1
20260905073057 85 0 0.0 3.0 0.00 0.00 0.00 65 1013.0
20260905072520 85 0 0.0 5.0 0.00 0.00 0.00 65 1013.2
20260905072019 85 0 1.0 5.0 0.00 0.00 0.00 65 1013.2
20260905071536 85 216 1.0 4.0 0.00 0.00 0.00 65 1013.3
20260905071018 85 0 1.0 4.0 0.00 0.00 0.00 65 1013.4
20260905070518 85 0 0.0 4.0 0.00 0.00 0.00 65 1013.3
20260905070040 86 0 0.0 3.0 0.00 0.00 0.00 65 1013.3
20260905065516 86 0 0.0 6.0 0.00 0.00 0.00 65 1013.4
20260905065024 86 0 1.0 7.0 0.00 0.00 0.00 65 1013.4
20260905064536 86 0 2.0 7.0 0.00 0.00 0.00 64 1013.5
20260905064020 86 195 1.0 6.0 0.00 0.00 0.00 64 1013.6
20260905063517 86 199 1.0 5.0 0.00 0.00 0.00 64 1013.6
20260905063040 86 0 0.0 7.0 0.00 0.00 0.00 65 1013.6
20260905062519 86 193 1.0 7.0 0.00 0.00 0.00 65 1013.6
20260905062021 86 218 1.0 5.0 0.00 0.00 0.00 65 1013.6
20260905061537 86 0 0.0 5.0 0.00 0.00 0.00 65 1013.6
20260905061020 86 0 0.0 5.0 0.00 0.00 0.00 65 1013.6
20260905060519 86 0 0.0 7.0 0.00 0.00 0.00 65 1013.7
20260905060035 86 206 1.0 7.0 0.00 0.00 0.00 65 1013.6
20260905055517 86 208 0.0 3.0 0.00 0.00 0.00 65 1013.6
20260905055021 86 0 0.0 0.0 0.00 0.00 0.00 65 1013.5
20260905054541 86 0 0.0 3.0 0.00 0.00 0.00 65 1013.5
20260905054020 86 0 0.0 3.0 0.00 0.00 0.00 66 1013.5
20260905053518 86 0 0.0 2.0 0.00 0.00 0.00 65 1013.5
20260905053037 86 0 0.0 2.0 0.00 0.00 0.00 64 1013.5
20260905052517 87 212 0.0 2.0 0.00 0.00 0.00 64 1013.4
20260905052020 87 0 0.0 2.0 0.00 0.00 0.00 64 1013.3
20260905051535 87 0 0.0 3.0 0.00 0.00 0.00 64 1013.2
20260905051017 87 0 0.0 3.0 0.00 0.00 0.00 63 1013.3
20260905050521 87 0 0.0 4.0 0.00 0.00 0.00 63 1013.4
20260905050040 87 212 0.0 5.0 0.00 0.00 0.00 62 1013.3
20260905045523 87 0 2.0 5.0 0.00 0.00 0.00 62 1013.4
20260905045018 87 0 0.0 4.0 0.00 0.00 0.00 62 1013.4
20260905044551 87 200 0.0 6.0 0.00 0.00 0.00 62 1013.4
20260905044021 88 0 0.0 6.0 0.00 0.00 0.00 62 1013.5
20260905043520 88 221 1.0 6.0 0.00 0.00 0.00 61 1013.4
20260905043037 88 0 1.0 7.0 0.00 0.00 0.00 61 1013.4
20260905042517 88 0 0.0 9.0 0.00 0.00 0.00 61 1013.3
20260905042020 88 216 2.0 9.0 0.00 0.00 0.00 60 1013.3
20260905041535 88 187 1.0 7.0 0.00 0.00 0.00 60 1013.3
20260905041048 88 0 1.0 9.0 0.00 0.00 0.00 59 1013.3
20260905040517 89 206 2.0 9.0 0.00 0.00 0.00 59 1013.4
20260905040048 89 242 1.0 9.0 0.00 0.00 0.00 58 1013.4
20260905035523 89 200 1.0 11.0 0.00 0.00 0.00 58 1013.4
20260905035019 89 248 2.0 11.0 0.00 0.00 0.00 58 1013.3
20260905034557 89 228 1.0 6.0 0.00 0.00 0.00 57 1013.3
20260905034020 89 177 1.0 7.0 0.00 0.00 0.00 56 1013.4
20260905033517 90 195 2.0 7.0 0.00 0.00 0.00 56 1013.4
20260905033059 90 222 2.0 7.0 0.00 0.00 0.00 56 1013.4
20260905032520 90 190 0.0 5.0 0.00 0.00 0.00 55 1013.4
20260905032020 90 210 2.0 6.0 0.00 0.00 0.00 54 1013.4
20260905031538 90 204 1.0 8.0 0.00 0.00 0.00 54 1013.5
20260905031020 90 198 2.0 8.0 0.00 0.00 0.00 54 1013.4
20260905030521 90 0 0.0 8.0 0.00 0.00 0.00 54 1013.3
20260905030037 91 0 2.0 6.0 0.00 0.00 0.00 54 1013.2
20260905025522 91 214 2.0 6.0 0.00 0.00 0.00 54 1013.2
20260905025022 91 214 2.0 6.0 0.00 0.00 0.00 54 1013.1
20260905024545 91 190 0.0 6.0 0.00 0.00 0.00 54 1013.0
20260905024024 91 178 0.0 7.0 0.00 0.00 0.00 54 1012.9
20260905023517 91 0 3.0 7.0 0.00 0.00 0.00 54 1013.0
20260905023116 91 0 0.0 7.0 0.00 0.00 0.00 54 1013.0
20260905022520 91 0 1.0 7.0 0.00 0.00 0.00 54 1012.9
20260905022020 91 216 0.0 8.0 0.00 0.00 0.00 54 1012.8
20260905021541 91 195 1.0 8.0 0.00 0.00 0.00 53 1012.7
20260905021017 91 0 0.0 8.0 0.00 0.00 0.00 54 1012.6
20260905020523 91 184 0.0 8.0 0.00 0.00 0.00 53 1012.5
20260905020041 91 0 0.0 3.0 0.00 0.00 0.00 53 1012.4
20260905015519 91 0 0.0 4.0 0.00 0.00 0.00 53 1012.3
20260905015022 91 187 0.0 4.0 0.00 0.00 0.00 52 1012.3
20260905014537 91 0 0.0 4.0 0.00 0.00 0.00 52 1012.2
20260905014020 91 0 1.0 7.0 0.00 0.00 0.00 52 1012.1
20260905013520 91 212 1.0 7.0 0.00 0.00 0.00 52 1012.0
20260905013038 92 0 1.0 4.0 0.00 0.00 0.00 52 1012.0
20260905012520 92 0 0.0 6.0 0.00 0.00 0.00 52 1012.0
20260905012020 92 179 1.0 7.0 0.00 0.00 0.00 51 1012.0
20260905011553 92 210 1.0 10.0 0.00 0.00 0.00 53 1011.9
20260905011020 93 226 3.0 10.0 0.00 0.00 0.00 51 1011.8
20260905010521 93 254 1.0 7.0 0.00 0.00 0.00 47 1011.8
20260905010043 93 160 1.0 7.0 0.00 0.00 0.00 47 1011.7
20260905005519 93 0 1.0 7.0 0.00 0.00 0.00 48 1011.7
20260905005019 94 0 0.0 7.0 0.00 0.00 0.00 47 1011.6
20260905004539 94 168 1.0 6.0 0.00 0.00 0.00 47 1011.6
20260905004021 94 0 1.0 7.0 0.00 0.00 0.00 47 1011.6
20260905003526 94 0 0.0 7.0 0.00 0.00 0.00 47 1011.7
20260905003042 94 96 1.0 6.0 0.00 0.00 0.00 46 1011.7
20260905002518 94 0 1.0 6.0 0.00 0.00 0.00 46 1011.6
20260905002018 94 200 1.0 5.0 0.00 0.00 0.00 45 1011.5
20260905001537 95 146 0.0 7.0 0.00 0.00 0.00 46 1011.4
20260905001020 95 0 2.0 7.0 0.00 0.00 0.00 46 1011.4
20260905000521 95 160 3.0 9.0 0.00 0.00 0.00 46 1011.3
20260905000042 95 216 1.0 11.0 0.00 0.00 0.00 46 1011.4
20260904235523 95 205 2.0 11.0 0.00 0.00 0.00 46 1011.4
20260904235021 95 120 2.0 8.0 0.00 0.00 0.00 46 1011.5
20260904234537 95 169 2.0 6.0 0.00 0.00 0.00 46 1011.4
20260904234019 95 0 2.0 6.0 0.00 0.00 0.00 45 1011.4
20260904233518 96 0 2.0 6.0 0.00 0.00 0.00 45 1011.3
20260904233040 96 141 1.0 5.0 0.00 0.00 0.00 45 1011.3
20260904232517 97 0 1.0 7.0 0.00 0.00 0.00 45 1011.3
20260904232018 97 128 1.0 9.0 0.00 0.00 0.00 45 1011.4
20260904231542 97 139 1.0 11.0 0.00 0.00 0.00 45 1011.3
20260904231023 97 126 4.0 11.0 0.00 0.00 0.00 45 1011.4
20260904230520 97 194 1.0 7.0 0.00 0.00 0.00 45 1011.5
20260904230041 97 97 2.0 7.0 0.00 0.00 0.00 45 1011.4
20260904225519 97 114 2.0 7.0 0.00 0.00 0.00 45 1011.4
20260904225019 97 110 1.0 6.0 0.00 0.00 0.00 45 1011.4
20260904224538 98 0 0.0 6.0 0.00 0.00 0.00 45 1011.5
20260904224020 98 139 1.0 7.0 0.00 0.00 0.00 44 1011.6
20260904223518 98 0 2.0 7.0 0.00 0.00 0.00 43 1011.6
20260904223035 99 181 1.0 6.0 0.00 0.00 0.00 44 1011.7
20260904222518 99 96 1.0 9.0 0.00 0.00 0.00 43 1011.7
20260904222018 100 139 2.0 9.0 0.00 0.00 0.00 41 1011.7
20260904221541 101 231 3.0 7.0 0.00 0.00 0.00 40 1011.6
20260904221018 103 125 1.0 8.0 0.00 0.00 0.00 39 1011.6
20260904220519 103 119 2.0 8.0 0.00 0.00 0.00 39 1011.6
20260904220106 103 103 1.0 4.0 0.00 0.00 0.00 40 1011.7
20260904215517 102 146 1.0 7.0 0.00 0.00 0.00 39 1011.8
20260904215017 102 0 1.0 7.0 0.00 0.00 0.00 40 1011.9
20260904214540 102 0 2.0 7.0 0.00 0.00 0.00 40 1011.9
20260904214024 100 200 1.0 9.0 0.00 0.00 0.00 41 1011.9
20260904213526 100 192 3.0 9.0 0.00 0.00 0.00 41 1011.9
20260904213038 101 154 3.0 9.0 0.00 0.00 0.00 40 1012.0
20260904212522 102 194 3.0 9.0 0.00 0.00 0.00 39 1012.0
20260904212018 101 148 1.0 9.0 0.00 0.00 0.00 42 1012.1
20260904211551 100 199 2.0 8.0 0.00 0.00 0.00 41 1012.1
20260904211020 100 0 1.0 8.0 0.00 0.00 0.00 42 1012.0
20260904210520 100 187 3.0 8.0 0.00 0.00 0.00 42 1012.1
20260904210045 99 202 0.0 9.0 0.00 0.00 0.00 43 1012.2
20260904205519 99 128 2.0 9.0 0.00 0.00 0.00 44 1012.3
20260904205022 99 233 3.0 11.0 0.00 0.00 0.00 43 1012.3
20260904204545 98 205 4.0 11.0 0.00 0.00 0.00 43 1012.5
20260904204019 98 192 2.0 9.0 0.00 0.00 0.00 44 1012.4
20260904203524 99 223 3.0 8.0 0.00 0.00 0.00 42 1012.5
20260904203043 100 131 2.0 8.0 0.00 0.00 0.00 41 1012.4
20260904202516 100 214 2.0 11.0 0.00 0.00 0.00 42 1012.6
20260904202017 99 216 2.0 11.0 0.00 0.00 0.00 43 1012.6
20260904201536 99 220 3.0 9.0 0.00 0.00 0.00 42 1012.7
20260904201025 100 196 1.0 8.0 0.00 0.00 0.00 43 1012.7
20260904200520 99 0 3.0 11.0 0.00 0.00 0.00 44 1012.7
20260904200039 98 168 3.0 11.0 0.00 0.00 0.00 44 1012.7
20260904195520 98 186 4.0 10.0 0.00 0.00 0.00 44 1013.0
20260904195019 98 242 3.0 8.0 0.00 0.00 0.00 44 1013.0
20260904194551 97 218 3.0 11.0 0.00 0.00 0.00 45 1013.0
20260904194017 97 0 3.0 13.0 0.00 0.00 0.00 45 1013.2
20260904193522 98 202 6.0 13.0 0.00 0.00 0.00 44 1013.2
20260904193041 98 208 1.0 9.0 0.00 0.00 0.00 45 1013.1
20260904192520 97 130 2.0 9.0 0.00 0.00 0.00 46 1013.1
20260904192025 96 235 4.0 9.0 0.00 0.00 0.00 46 1013.2
20260904191543 97 221 4.0 9.0 0.00 0.00 0.00 45 1013.2
20260904191021 96 220 2.0 9.0 0.00 0.00 0.00 46 1013.3
20260904190520 96 195 2.0 10.0 0.00 0.00 0.00 47 1013.4
20260904190037 96 0 2.0 10.0 0.00 0.00 0.00 46 1013.5
20260904185517 96 216 3.0 8.0 0.00 0.00 0.00 46 1013.6
20260904185020 96 211 1.0 10.0 0.00 0.00 0.00 47 1013.7
20260904184541 96 213 4.0 10.0 0.00 0.00 0.00 47 1013.8
20260904184018 95 204 0.0 12.0 0.00 0.00 0.00 48 1013.9
20260904183518 95 195 1.0 12.0 0.00 0.00 0.00 48 1014.0
20260904183041 95 0 1.0 9.0 0.00 0.00 0.00 49 1014.0
20260904182520 95 166 2.0 10.0 0.00 0.00 0.00 49 1014.1
20260904182023 95 221 4.0 10.0 0.00 0.00 0.00 50 1014.1
20260904181549 95 0 2.0 11.0 0.00 0.00 0.00 48 1014.2
20260904181017 95 202 3.0 11.0 0.00 0.00 0.00 50 1014.2
20260904180516 95 141 0.0 9.0 0.00 0.00 0.00 51 1014.3
20260904180038 94 0 2.0 9.0 0.00 0.00 0.00 53 1014.4
20260904175520 94 204 4.0 8.0 0.00 0.00 0.00 53 1014.5
20260904175019 93 168 2.0 7.0 0.00 0.00 0.00 54 1014.4
20260904174559 92 217 2.0 9.0 0.00 0.00 0.00 56 1014.5
20260904174019 92 241 3.0 9.0 0.00 0.00 0.00 55 1014.6
20260904173519 93 0 1.0 7.0 0.00 0.00 0.00 54 1014.6
20260904173037 92 182 0.0 7.0 0.00 0.00 0.00 55 1014.6
20260904172521 93 0 2.0 11.0 0.00 0.00 0.00 56 1014.6
20260904172020 92 187 3.0 11.0 0.00 0.00 0.00 57 1014.6
20260904171540 91 186 1.0 9.0 0.00 0.00 0.00 58 1014.5
20260904171019 92 202 2.0 9.0 0.00 0.00 0.00 57 1014.6
20260904170520 91 198 1.0 7.0 0.00 0.00 0.00 59 1014.7
20260904170035 90 0 0.0 9.0 0.00 0.00 0.00 60 1014.7
20260904165521 90 180 3.0 9.0 0.00 0.00 0.00 61 1014.8
20260904165018 90 179 0.0 6.0 0.00 0.00 0.00 62 1014.8
20260904164537 89 0 2.0 8.0 0.00 0.00 0.00 63 1014.9
20260904164017 90 187 2.0 8.0 0.00 0.00 0.00 62 1015.1
20260904163517 89 154 3.0 8.0 0.00 0.00 0.00 62 1015.0
20260904163048 90 220 1.0 8.0 0.00 0.00 0.00 62 1015.0
20260904162520 90 200 3.0 9.0 0.00 0.00 0.00 62 1014.9
20260904162019 89 0 3.0 9.0 0.00 0.00 0.00 64 1014.9
20260904161537 89 161 3.0 8.0 0.00 0.00 0.00 64 1015.0
20260904161019 89 175 3.0 12.0 0.00 0.00 0.00 64 1015.0
20260904160518 88 179 2.0 12.0 0.00 0.00 0.00 65 1014.9
20260904160039 88 215 1.0 10.0 0.00 0.00 0.00 67 1015.0
20260904155522 88 189 2.0 6.0 0.00 0.00 0.00 68 1014.9
20260904155017 88 247 0.0 7.0 0.00 0.00 0.00 69 1014.8
20260904154543 87 190 3.0 7.0 0.00 0.00 0.00 70 1014.9
20260904154018 87 177 1.0 7.0 0.00 0.00 0.00 70 1014.9
20260904153518 87 215 1.0 7.0 0.00 0.00 0.00 72 1014.9
20260904153046 86 131 0.0 8.0 0.00 0.00 0.00 73 1014.9
20260904152519 86 202 2.0 8.0 0.00 0.00 0.00 74 1014.9
20260904152020 85 200 2.0 7.0 0.00 0.00 0.00 75 1014.8
20260904151539 85 0 2.0 8.0 0.00 0.00 0.00 77 1014.7
20260904151018 84 139 3.0 8.0 0.00 0.00 0.00 77 1014.7
20260904150518 84 211 2.0 7.0 0.00 0.00 0.00 78 1014.6
20260904150046 84 144 1.0 9.0 0.00 0.00 0.00 78 1014.7
20260904145520 84 189 3.0 9.0 0.00 0.00 0.00 79 1014.8
20260904145020 83 217 2.0 8.0 0.00 0.00 0.00 80 1014.7
20260904144538 83 0 1.0 9.0 0.00 0.00 0.00 81 1014.7
20260904144020 83 0 2.0 9.0 0.00 0.00 0.00 81 1014.7
20260904143520 83 203 2.0 9.0 0.00 0.00 0.00 82 1014.8
20260904143039 82 208 3.0 10.0 0.00 0.00 0.00 83 1014.7
20260904142520 82 198 4.0 10.0 0.00 0.00 0.00 83 1014.8
20260904142023 82 0 2.0 6.0 0.00 0.00 0.00 84 1014.6
20260904141538 81 0 1.0 6.0 0.00 0.00 0.00 84 1014.7
20260904141030 81 0 1.0 6.0 0.00 0.00 0.00 85 1014.7
20260904140519 81 0 0.0 6.0 0.00 0.00 0.00 85 1014.8
20260904140043 80 203 1.0 6.0 0.00 0.00 0.00 86 1014.7
20260904135521 80 197 1.0 11.0 0.00 0.00 0.00 87 1014.7
20260904135020 80 208 3.0 11.0 0.00 0.00 0.00 87 1014.6
20260904134546 80 0 1.0 10.0 0.00 0.00 0.00 87 1014.6
20260904134017 80 189 3.0 10.0 0.00 0.00 0.00 87 1014.6
20260904133518 80 205 1.0 9.0 0.00 0.00 0.00 88 1014.5
20260904133042 79 0 2.0 10.0 0.00 0.00 0.00 88 1014.5
20260904132518 79 0 4.0 10.0 0.00 0.00 0.00 88 1014.3
20260904132020 79 173 2.0 8.0 0.00 0.00 0.00 88 1014.3
20260904131540 79 225 3.0 8.0 0.00 0.00 0.00 88 1014.2
20260904131019 79 0 1.0 9.0 0.00 0.00 0.00 89 1014.3
20260904130523 79 209 2.0 9.0 0.00 0.00 0.00 89 1014.2
20260904130039 78 0 1.0 7.0 0.00 0.00 0.00 89 1014.1
20260904125516 78 0 0.0 4.0 0.00 0.00 0.00 89 1014.0
20260904125024 78 0 0.0 6.0 0.00 0.00 0.00 89 1013.9
20260904124541 78 198 1.0 6.0 0.00 0.00 0.00 89 1014.0
20260904124018 78 183 0.0 4.0 0.00 0.00 0.00 89 1013.9
20260904123520 78 206 0.0 4.0 0.00 0.00 0.00 89 1013.9
20260904123103 78 0 0.0 4.0 0.00 0.00 0.00 89 1013.8
20260904122519 78 0 0.0 4.0 0.00 0.00 0.00 89 1013.9
20260904122020 78 0 0.0 3.0 0.00 0.00 0.00 88 1013.9
20260904121539 78 0 0.0 3.0 0.00 0.00 0.00 88 1013.7
20260904121023 78 0 0.0 4.0 0.00 0.00 0.00 88 1013.9
20260904120520 78 0 0.0 4.0 0.00 0.00 0.00 88 1013.8
20260904120040 77 0 1.0 4.0 0.00 0.00 0.00 88 1013.7
20260904115519 78 0 0.0 5.0 0.00 0.00 0.00 88 1013.7
20260904115022 77 0 1.0 5.0 0.00 0.00 0.00 88 1013.8
20260904114538 77 210 0.0 3.0 0.00 0.00 0.00 87 1013.7
20260904114018 77 0 0.0 3.0 0.00 0.00 0.00 87 1013.6
20260904113518 77 0 0.0 0.0 0.00 0.00 0.00 87 1013.6
20260904113048 77 0 0.0 0.0 0.00 0.00 0.00 87 1013.6
20260904112517 77 0 0.0 0.0 0.00 0.00 0.00 86 1013.6
20260904112018 78 0 0.0 0.0 0.00 0.00 0.00 86 1013.6
20260904111540 78 0 0.0 3.0 0.00 0.00 0.00 86 1013.6
20260904111018 78 0 0.0 4.0 0.00 0.00 0.00 86 1013.6
20260904110520 78 0 0.0 4.0 0.00 0.00 0.00 86 1013.6
20260904110046 78 0 0.0 1.0 0.00 0.00 0.00 86 1013.5
20260904105518 78 0 0.0 2.0 0.00 0.00 0.00 86 1013.6
20260904105018 78 0 0.0 3.0 0.00 0.00 0.00 86 1013.4
20260904104537 78 0 0.0 3.0 0.00 0.00 0.00 86 1013.3
20260904104018 78 0 0.0 3.0 0.00 0.00 0.00 86 1013.3
20260904103520 78 0 0.0 3.0 0.00 0.00 0.00 86 1013.3
20260904103037 78 0 0.0 4.0 0.00 0.00 0.00 86 1013.2
20260904102522 78 0 0.0 4.0 0.00 0.00 0.00 85 1013.3
20260904102020 78 0 0.0 3.0 0.00 0.00 0.00 85 1013.3
20260904101544 78 0 0.0 4.0 0.00 0.00 0.00 85 1013.2
20260904101017 78 0 0.0 4.0 0.00 0.00 0.00 85 1013.2
20260904100517 78 0 0.0 3.0 0.00 0.00 0.00 85 1013.3
20260904100041 78 0 0.0 4.0 0.00 0.00 0.00 85 1013.1
20260904095520 78 0 0.0 4.0 0.00 0.00 0.00 84 1013.2
20260904095022 78 0 0.0 4.0 0.00 0.00 0.00 84 1013.2
20260904094539 78 0 0.0 4.0 0.00 0.00 0.00 84 1013.1
20260904094018 78 247 0.0 5.0 0.00 0.00 0.00 84 1013.1
20260904093520 78 0 0.0 5.0 0.00 0.00 0.00 84 1013.2
20260904093052 78 224 0.0 4.0 0.00 0.00 0.00 83 1013.1
20260904092519 79 0 1.0 4.0 0.00 0.00 0.00 83 1013.2
20260904092017 79 102 0.0 5.0 0.00 0.00 0.00 83 1013.2
20260904091537 79 206 1.0 5.0 0.00 0.00 0.00 83 1013.3
20260904091018 79 206 0.0 5.0 0.00 0.00 0.00 83 1013.2
20260904090521 79 0 0.0 5.0 0.00 0.00 0.00 83 1013.2
20260904090040 79 0 1.0 4.0 0.00 0.00 0.00 82 1013.2